Regional Weather Roundup
Issued by NWS

Home | Current Version | Previous Version | Graphics & Text | Print | Product List | Glossary Off
Versions: 1 2 3 4 5 6 7 8 9 10 11 12 13 14 15 16 17 18 19 20 21 22 23 24 25 26 27 28 29 30 31 32 33 34 35 36 37 38 39 40 41 42 43 44 45 46 47 48 49 50

000
ASUS43 KTOP 271259
RWRKS

WEATHER ROUNDUP FOR KANSAS
NATIONAL WEATHER SERVICE GOODLAND KS
800 AM CDT THU JUL 27 2017

NOTE:  "FAIR" INDICATES FEW OR NO CLOUDS BELOW 12,000 FEET WITH NO
SIGNIFICANT WEATHER AND/OR OBSTRUCTIONS TO VISIBILITY.

KSZ001>006-013>018-027>032-041>047-271400-
NORTHWEST KANSAS

CITY           SKY/WX    TMP DP  RH WIND       PRES   REMARKS
GOODLAND       CLOUDY    68  67  96 E10       30.18F FOG
HAYS           CLOUDY    73  69  87 NE13      30.07S
HILL CITY      CLOUDY    73  70  90 NE9       30.11S
RUSSELL        CLOUDY    72  71  97 NE14      30.04R FOG
$$

KSZ061>065-074>080-084>089-271400-
SOUTHWEST KANSAS

CITY           SKY/WX    TMP DP  RH WIND       PRES   REMARKS
DODGE CITY     FOG       71  70  96 N13       30.08R VSB 1
ELKHART          N/A     67  55  65 W8          N/A
GARDEN CITY    CLOUDY    71  68  90 NE13      30.12R
GREAT BEND     CLOUDY    75  71  87 N13       30.04R
LIBERAL        CLOUDY    70  69  97 NW13      30.11R
$$

KSZ066>073-081>083-090>101-271400-
SOUTHEAST KANSAS

CITY           SKY/WX    TMP DP  RH WIND       PRES   REMARKS
CHANUTE        CLOUDY    77  74  90 S5        29.96R
COFFEYVILLE    CLOUDY    76  73  91 S6        29.95F
HUTCHINSON     CLOUDY    75  73  93 N10       29.98R FOG
MEDICINE LODGE   N/A     77  72  84 N9        29.98R
NEWTON         CLOUDY    73  73 100 NE8       29.98R FOG
PARSONS        CLOUDY    77  73  87 CALM      29.97R
WICHITA INTL   PTSUNNY   76  74  93 N8        29.96R
WICHITA JABRA  MOSUNNY   82  71  69 N7        29.96R
WICHITA MCCONL MOSUNNY   80  69  67 W7        29.96R
WINFIELD       MOSUNNY   80  68  66 SW10      29.95R
$$

KSZ007>012-019>026-033>040-048>060-102>105-271400-
NORTHEAST KANSAS

CITY           SKY/WX    TMP DP  RH WIND       PRES   REMARKS
CONCORDIA      CLOUDY    73  71  93 NE9       30.05R
EMPORIA        CLOUDY    75  73  93 NE9       29.98R
LAWRENCE       CLOUDY    76  75  97 N3        29.97R
MANHATTAN      CLOUDY    75  73  93 NE10      30.00R
OLATHE IND     CLOUDY    74  73  97 E6        29.97F FOG
OLATHE EXE     CLOUDY    73  73 100 CALM      29.97S FOG
SALINA         CLOUDY    77  72  84 NE12      30.01R
TOPEKA BILLARD CLOUDY    76  76 100 N6        29.97S
TOPEKA FORBES  CLOUDY    77  76  96 NE3       29.98R FOG
$$



USA.gov is the U.S. government's official web portal to all federal, state and local government web resources and services.